This is the latest recevied weather packets stored in our database for station/object KD9JJA. If no packets are shown the sender has not sent any weather packets the latest 1 day(s).
| Time | Temp. | Humidity | Pressure | Rain* | Wind** | Luminosity | Snow |
|---|---|---|---|---|---|---|---|
| 1778018850 | 12.22° C | 99% | 1009.7 hPa | 0 mm | 0 m/s | 6 W/m² | - |
| 1778018548 | 12.78° C | 99% | 1009.4 hPa | 0 mm | 0.45 m/s, 274° | 6 W/m² | - |
| 1778018246 | 13.33° C | 99% | 1009.4 hPa | 0 mm | 0.89 m/s, 220° | 3 W/m² | - |
| 1778017943 | 14.44° C | 99% | 1009 hPa | 0 mm | 0.89 m/s, 299° | 10 W/m² | - |
| 1778017641 | 15° C | 99% | 1009 hPa | 0 mm | 0.89 m/s, 310° | 9 W/m² | - |
| 1778017338 | 15.56° C | 99% | 1008.7 hPa | 0 mm | 0.89 m/s, 264° | 5 W/m² | - |
| 1778017036 | 15.56° C | 99% | 1008.9 hPa | 0 mm | 0.89 m/s, 242° | 2 W/m² | - |
| 1778016733 | 15.56° C | 99% | 1008.6 hPa | 0 mm | 0.89 m/s, 250° | 8 W/m² | - |
| 1778016428 | 15.56° C | 99% | 1008.8 hPa | 0 mm | 0.89 m/s, 191° | 9 W/m² | - |
| 1778016125 | 15.56° C | 99% | 1008.6 hPa | 0 mm | 0.45 m/s, 217° | 13 W/m² | - |
| 1778015817 | 15.56° C | 99% | 1008.8 hPa | 0 mm | 0.45 m/s, 238° | 8 W/m² | - |
| 1778015514 | 15.56° C | 99% | 1008.8 hPa | 0 mm | 0.89 m/s, 226° | 10 W/m² | - |
| 1778015211 | 15.56° C | 99% | 1008.6 hPa | 0 mm | 0.89 m/s, 228° | 11 W/m² | - |
| 1778014908 | 15.56° C | 99% | 1008.6 hPa | 0 mm | 0.89 m/s, 244° | 17 W/m² | - |
| 1778014605 | 15.56° C | 99% | 1008.9 hPa | 0 mm | 1.34 m/s, 233° | 25 W/m² | - |
| 1778014303 | 15.56° C | 99% | 1009 hPa | 0 mm | 1.34 m/s, 241° | 14 W/m² | - |
| 1778014003 | 15.56° C | 99% | 1008.9 hPa | 0 mm | 1.79 m/s, 245° | 9 W/m² | - |
| 1778013697 | 15.56° C | 99% | 1008.7 hPa | 0 mm | 1.34 m/s, 237° | 10 W/m² | - |
| 1778013393 | 16.11° C | 99% | 1008.9 hPa | 0 mm | 1.79 m/s, 226° | 13 W/m² | - |
| 1778013090 | 16.11° C | 99% | 1009 hPa | 0 mm | 1.34 m/s, 255° | 9 W/m² | - |
| 1778012781 | 16.11° C | 99% | 1009.1 hPa | 0 mm | 1.79 m/s, 235° | 11 W/m² | - |
| 1778012477 | 16.11° C | 99% | 1009.1 hPa | 0 mm | 1.34 m/s, 230° | 10 W/m² | - |
| 1778012174 | 16.11° C | 99% | 1009.2 hPa | 0 mm | 1.79 m/s, 240° | 11 W/m² | - |
| 1778011871 | 16.11° C | 99% | 1009.1 hPa | 0 mm | 1.34 m/s, 246° | 12 W/m² | - |
| 1778011563 | 15.56° C | 99% | 1009.1 hPa | 0 mm | 0.89 m/s, 244° | 13 W/m² | - |
* Rain latest hour (hover to see other rain measurements)
** Current wind speed in m/s (hover to see current wind gust speed)